Marshalltown, IA

5:33 PM CDT on June 23, 2017 (GMT -0500)
Marshalltown Municipal

Weather History for KMIW - January, 2014

Change the Weather History Date:

Thursday, January 2, 2014

  Actual Average Record
Temperature  
Mean Temperature -4 °F 19 °F  
Max Temperature 5 °F 27 °F 53 °F (1998)
Min Temperature -14 °F 11 °F -14 °F (2014)
Degree Days  
Heating Degree Days 69 46  
Month to date heating degree days 129 92  
Since 1 July heating degree days 3133 2904  
Cooling Degree Days 0 0  
Month to date cooling degree days 0 0  
Year to date cooling degree days 0 0  
Moisture  
Dew Point -6 °F    
Average Humidity 78    
Maximum Humidity 87    
Minimum Humidity 68    
Precipitation  
Precipitation T in 0.03 in 0.19 in (2017)
Month to date precipitation T 0.05  
Sea Level Pressure  
Sea Level Pressure 30.45 in    
Wind  
Wind Speed 11 mph (NNW)    
Max Wind Speed 20 mph    
Max Gust Speed 22 mph    
Visibility 10 miles    
Events      
T = Trace of Precipitation, MM = Missing Value Source: NWS Daily Summary

Daily Weather History Graph

Daily Weather History Graph

Search for Another Location

Airport or City:

Trip Planner

Search our weather history database for the weather conditions in past years. The results will help you decide how hot, cold, wet, or windy it might be!

Date:

Astronomy

Jan. 02, 2014 Rise Set
Actual Time 7:40 AM CST 4:51 PM CST
Civil Twilight 7:08 AM CST 5:23 PM CST
Nautical Twilight 6:33 AM CST 5:58 PM CST
Astronomical Twilight 5:59 AM CST 6:32 PM CST
Moon 8:19 AM CST (1/2) 6:51 PM CST (1/2)
Length of Visible Light 10h 14m
Length of Day
9h 11m
Waxing Crescent, 3% of the Moon is Illuminated
Jan 2
Waxing Crescent
Jan 7
First Quarter
Jan 15
Full
Jan 23
Last Quarter
Jan 30
New

Hourly Weather History & Observations

Time (CST) Temp. Windchill Dew Point Humidity Pressure Visibility Wind Dir Wind Speed Gust Speed Precip Events Conditions
12:53 AM 5.0 °F -12.3 °F -0.0 °F 80% 30.37 in 10.0 mi North 13.8 mph - N/A   Overcast
1:53 AM 5.0 °F -12.3 °F -0.9 °F 76% 30.37 in 10.0 mi North 13.8 mph - N/A   Overcast
2:53 AM 3.9 °F -15.0 °F -2.0 °F 76% 30.38 in 9.0 mi North 16.1 mph - 0.00 in   Overcast
3:53 AM 3.9 °F -15.0 °F -2.0 °F 76% 30.37 in 10.0 mi North 16.1 mph - N/A   Overcast
4:21 AM 3.9 °F -14.3 °F -2.0 °F 76% 30.30 in 10.0 mi North 15.0 mph - N/A   Overcast
4:53 AM 3.9 °F -13.7 °F -2.0 °F 76% 30.38 in 10.0 mi North 13.8 mph - N/A   Overcast
5:53 AM 3.0 °F -14.1 °F -2.9 °F 76% 30.39 in 10.0 mi NNW 12.7 mph - N/A   Overcast
6:53 AM 3.0 °F -14.8 °F -2.9 °F 76% 30.40 in 10.0 mi North 13.8 mph - N/A   Overcast
7:53 AM 1.9 °F -16.2 °F -4.0 °F 76% 30.42 in 10.0 mi NNW 13.8 mph - N/A   Overcast
8:53 AM 1.0 °F -18.7 °F -5.1 °F 75% 30.43 in 10.0 mi North 16.1 mph - N/A   Scattered Clouds
9:53 AM 1.0 °F -16.6 °F -5.1 °F 75% 30.46 in 10.0 mi NNW 12.7 mph - N/A   Clear
10:53 AM 1.9 °F -17.5 °F -5.1 °F 72% 30.47 in 10.0 mi NNW 16.1 mph - N/A   Clear
11:53 AM 1.9 °F -15.5 °F -5.1 °F 72% 30.47 in 10.0 mi North 12.7 mph - N/A   Clear
12:53 PM 3.0 °F -14.1 °F -4.0 °F 73% 30.46 in 10.0 mi NNW 12.7 mph - N/A   Clear
1:53 PM 3.9 °F -13.7 °F -4.0 °F 70% 30.45 in 10.0 mi NNW 13.8 mph - N/A   Clear
2:53 PM 3.0 °F -15.5 °F -5.1 °F 69% 30.47 in 10.0 mi North 15.0 mph - N/A   Clear
3:53 PM 3.0 °F -14.8 °F -5.1 °F 69% 30.49 in 10.0 mi NNW 13.8 mph - N/A   Clear
4:53 PM 1.0 °F -15.8 °F -6.0 °F 72% 30.51 in 10.0 mi NNW 11.5 mph - N/A   Clear
5:53 PM -0.0 °F -15.3 °F -7.1 °F 72% 30.52 in 10.0 mi NNW 9.2 mph - N/A   Clear
6:53 PM -5.1 °F -17.6 °F -9.9 °F 80% 30.53 in 10.0 mi NW 5.8 mph - N/A   Clear
7:53 PM -6.0 °F -18.6 °F -9.9 °F 83% 30.53 in 10.0 mi WNW 5.8 mph - N/A   Clear
8:53 PM -7.1 °F -19.9 °F -11.0 °F 83% 30.52 in 10.0 mi North 5.8 mph - N/A   Clear
9:53 PM -9.0 °F - -13.0 °F 83% 30.52 in 10.0 mi Calm Calm - N/A   Clear
10:53 PM -13.0 °F -28.6 °F -16.1 °F 86% 30.52 in 10.0 mi WSW 6.9 mph - N/A   Clear
11:53 PM -11.0 °F - -14.1 °F 86% 30.50 in 10.0 mi Calm Calm - N/A   Clear